Chesapeake, VA

11:34 PM EST on February 26, 2017 (GMT -0500)
Fentress Naval Air Landing Field

Weather History for KNFE - August, 2014

Change the Weather History Date:

Sunday, August 17, 2014

  Actual Average (KNTU) Record (KNTU)
Temperature  
Mean Temperature 82 °F -  
Max Temperature 91 °F 83 °F 100 °F (2016)
Min Temperature 73 °F 67 °F 61 °F (2004)
Cooling Degree Days 16    
Growing Degree Days 32 (Base 50)    
Moisture  
Dew Point 68 °F    
Average Humidity 68    
Maximum Humidity 87    
Minimum Humidity 45    
Precipitation  
Precipitation 0.00 in - - ()
Sea Level Pressure  
Sea Level Pressure 29.95 in    
Wind  
Wind Speed 3 mph (SW)    
Max Wind Speed 6 mph    
Max Gust Speed -    
Visibility 9 miles    
Events      
Averages and records for this station are not official NWS values.
T = Trace of Precipitation, MM = Missing Value Source: NWS Daily Summary

Daily Weather History Graph

Daily Weather History Graph

Search for Another Location

Airport or City:

Trip Planner

Search our weather history database for the weather conditions in past years. The results will help you decide how hot, cold, wet, or windy it might be!

Date:

Astronomy

Aug. 17, 2014 Rise Set
Actual Time 6:23 AM EDT 7:53 PM EDT
Civil Twilight 5:56 AM EDT 8:20 PM EDT
Nautical Twilight 5:23 AM EDT 8:53 PM EDT
Astronomical Twilight 4:48 AM EDT 9:27 PM EDT
Moon No Moon Rise 1:54 PM EDT (8/17)
Length of Visible Light 14h 24m
Length of Day
13h 29m
Waning Gibbous, 48% of the Moon is Illuminated
Aug 17
Waning Gibbous
Aug 25
New
Sep 2
First Quarter
Sep 8
Full
Sep 15
Last Quarter

Hourly Weather History & Observations

Time (EDT) Temp. Heat Index Dew Point Humidity Pressure Visibility Wind Dir Wind Speed Gust Speed Precip Events Conditions
12:56 AM 75.9 °F - 69.1 °F 79% 30.00 in 10.0 mi Variable 3.5 mph - N/A   Clear
1:56 AM 75.9 °F - 69.1 °F 79% 29.98 in 10.0 mi SSW 3.5 mph - N/A   Partly Cloudy
2:56 AM 73.9 °F - 69.1 °F 85% 29.97 in 10.0 mi SSW 3.5 mph - N/A   Clear
3:56 AM 73.0 °F - 68.0 °F 84% 29.96 in 8.0 mi Calm Calm - N/A   Clear
4:56 AM 73.0 °F - 68.0 °F 84% 29.96 in 7.0 mi South 3.5 mph - N/A   Clear
5:56 AM 73.0 °F - 69.1 °F 87% 29.96 in 6.0 mi Calm Calm - N/A   Clear
6:13 AM 73.0 °F - 68.0 °F 84% 29.95 in 7.0 mi South 3.5 mph - N/A   Partly Cloudy
6:56 AM 73.0 °F - 69.1 °F 87% 29.97 in 5.0 mi Calm Calm - N/A   Clear
7:56 AM 77.0 °F - 71.1 °F 82% 29.97 in 8.0 mi Calm Calm - N/A   Clear
8:56 AM 78.1 °F - 71.1 °F 79% 29.97 in 9.0 mi Calm Calm - N/A   Clear
9:56 AM 82.0 °F 86.3 °F 71.1 °F 69% 29.97 in 10.0 mi West 3.5 mph - N/A   Clear
10:56 AM 84.0 °F 88.4 °F 70.0 °F 63% 29.98 in 10.0 mi Variable 3.5 mph - N/A   Clear
11:56 AM 84.9 °F 88.8 °F 69.1 °F 59% 29.97 in 10.0 mi WNW 3.5 mph - N/A   Partly Cloudy
12:56 PM 88.0 °F 92.9 °F 70.0 °F 55% 29.96 in 10.0 mi Variable 3.5 mph - N/A   Clear
1:56 PM 88.0 °F 90.3 °F 66.0 °F 48% 29.94 in 10.0 mi Variable 4.6 mph - N/A   Scattered Clouds
2:56 PM 90.0 °F 92.4 °F 66.0 °F 45% 29.92 in 10.0 mi Variable 3.5 mph - N/A   Clear
3:56 PM 90.0 °F 92.4 °F 66.0 °F 45% 29.92 in 10.0 mi Variable 5.8 mph - N/A   Clear
4:56 PM 89.1 °F 92.9 °F 68.0 °F 50% 29.92 in 10.0 mi Variable 5.8 mph - N/A   Clear
5:56 PM 88.0 °F 90.7 °F 66.9 °F 49% 29.92 in 10.0 mi WSW 4.6 mph - N/A   Clear
6:56 PM 86.0 °F 88.2 °F 66.0 °F 51% 29.92 in 10.0 mi Variable 3.5 mph - N/A   Scattered Clouds
7:56 PM 81.0 °F 83.0 °F 66.0 °F 60% 29.93 in 10.0 mi Calm Calm - N/A   Clear
8:56 PM 80.1 °F 82.7 °F 68.0 °F 67% 29.93 in 10.0 mi Calm Calm - N/A   Clear
9:56 PM 79.0 °F - 68.0 °F 69% 29.93 in 10.0 mi Calm Calm - N/A   Clear
10:56 PM 77.0 °F - 69.1 °F 76% 29.93 in 10.0 mi Calm Calm - N/A   Clear
11:56 PM 77.0 °F - 69.1 °F 76% 29.94 in 10.0 mi Calm Calm - N/A   Clear